User: anonymous   Login
Location: Slidell
(30.2789°N, 89.7378°W)
Time: 13:49:21
(UTC-05:00)
Language:

Cosmos 2360 Rocket - Orbit

View from above orbital plane
View from above orbital plane
View from above satellite
View from above satellite

Ground track
Ground track

The orbit data is extracted from the following two-line orbital elements,

1 25407U 98045B   16182.85546123 -.00000036  00000-0  61577-5 0  9997
2 25407  71.0117  59.7362 0007235   6.6783 353.4435 14.15745118926456
Epoch (UTC): 30 June 2016 20:31:51
Eccentricity: 0.0007235
inclination: 71.0117°
perigee height: 834 km
apogee height: 845 km
right ascension of ascending node: 59.7362°
argument of perigee: 6.6783°
revolutions per day: 14.15745118
mean anomaly at epoch: 353.4435°
orbit number at epoch: 92645

The dashed part of the orbit path shows where the satellite is in the earth's shadow,  

DLR